This is the latest recevied weather packets stored in our database for station/object KC8PTQ. If no packets are shown the sender has not sent any weather packets the latest 10 day(s).
| Time | Temp. | Humidity | Pressure | Rain* | Wind** | Luminosity | Snow |
|---|---|---|---|---|---|---|---|
| 1778421505 | 10.56° C | 68% | 1018 hPa | 0 mm | - | 166 W/m² | - |
| 1778421201 | 10° C | 70% | 1017.9 hPa | 0 mm | - | 292 W/m² | - |
| 1778420899 | 10.56° C | 71% | 1017.8 hPa | 0 mm | - | 119 W/m² | - |
| 1778420595 | 10.56° C | 69% | 1017.9 hPa | 0 mm | - | 267 W/m² | - |
| 1778420291 | 10.56° C | 74% | 1017.8 hPa | 0 mm | - | 289 W/m² | - |
| 1778419988 | 10° C | 75% | 1017.8 hPa | 0 mm | - | 298 W/m² | - |
| 1778419683 | 10° C | 79% | 1017.5 hPa | 0 mm | - | 112 W/m² | - |
| 1778419382 | 9.44° C | 77% | 1017.5 hPa | 0 mm | - | 211 W/m² | - |
| 1778419078 | 9.44° C | 79% | 1017.6 hPa | 0 mm | - | 108 W/m² | - |
| 1778418776 | 9.44° C | 78% | 1017.3 hPa | 0 mm | - | 91 W/m² | - |
| 1778418472 | 9.44° C | 81% | 1017.4 hPa | 0 mm | - | 93 W/m² | - |
| 1778418169 | 9.44° C | 79% | 1017.4 hPa | 0 mm | - | 93 W/m² | - |
| 1778417860 | 9.44° C | 85% | 1017.2 hPa | 0 mm | - | 107 W/m² | - |
| 1778417556 | 8.89° C | 84% | 1017.2 hPa | 0 mm | - | 120 W/m² | - |
| 1778417253 | 8.89° C | 86% | 1017 hPa | 0 mm | - | 88 W/m² | - |
| 1778416951 | 8.89° C | 86% | 1017 hPa | 0 mm | - | 63 W/m² | - |
| 1778416646 | 8.89° C | 89% | 1016.8 hPa | 0 mm | - | 45 W/m² | - |
| 1778416342 | 8.89° C | 88% | 1016.6 hPa | 0 mm | - | 54 W/m² | - |
| 1778416038 | 8.89° C | 88% | 1016.6 hPa | 0 mm | - | 50 W/m² | - |
| 1778415735 | 8.89° C | 89% | 1016.6 hPa | 0 mm | - | 51 W/m² | - |
| 1778415431 | 8.89° C | 89% | 1016.4 hPa | 0 mm | - | 30 W/m² | - |
| 1778415129 | 8.89° C | 89% | 1016.5 hPa | 0 mm | - | 46 W/m² | - |
| 1778414826 | 8.89° C | 90% | 1016.1 hPa | 0 mm | - | 48 W/m² | - |
| 1778414522 | 8.89° C | 90% | 1016.1 hPa | 0 mm | - | 35 W/m² | - |
| 1778414218 | 8.89° C | 91% | 1015.8 hPa | 0 mm | - | 29 W/m² | - |
* Rain latest hour (hover to see other rain measurements)
** Current wind speed in m/s (hover to see current wind gust speed)